This is the latest recevied weather packets stored in our database for station/object KE0LFX. If no packets are shown the sender has not sent any weather packets the latest 10 day(s).
| Time | Temp. | Humidity | Pressure | Rain* | Wind** | Luminosity | Snow |
|---|---|---|---|---|---|---|---|
| 1777221289 | 18.33° C | 71% | 1019.2 hPa | 0 mm | - | 124 W/m² | - |
| 1777220985 | 17.78° C | 71% | 1019.4 hPa | 0 mm | - | 83 W/m² | - |
| 1777220681 | 18.33° C | 70% | 1019.6 hPa | 0 mm | - | 195 W/m² | - |
| 1777220378 | 17.78° C | 72% | 1019.4 hPa | 0 mm | - | 101 W/m² | - |
| 1777220076 | 17.78° C | 72% | 1019.6 hPa | 0 mm | - | 94 W/m² | - |
| 1777219768 | 17.78° C | 72% | 1019.8 hPa | 0 mm | - | 85 W/m² | - |
| 1777219466 | 17.22° C | 73% | 1019.6 hPa | 0 mm | - | 116 W/m² | - |
| 1777219161 | 16.67° C | 74% | 1019.6 hPa | 0 mm | - | 69 W/m² | - |
| 1777218857 | 17.22° C | 74% | 1019.5 hPa | 0 mm | - | 68 W/m² | - |
| 1777218554 | 17.22° C | 74% | 1020 hPa | 0 mm | - | 65 W/m² | - |
| 1777218248 | 16.67° C | 75% | 1019.8 hPa | 0 mm | - | 67 W/m² | - |
| 1777217946 | 16.67° C | 75% | 1019.8 hPa | 0 mm | - | 229 W/m² | - |
| 1777217641 | 16.11° C | 76% | 1019.9 hPa | 0 mm | - | 337 W/m² | - |
| 1777217337 | 16.11° C | 76% | 1019.8 hPa | 0 mm | - | 84 W/m² | - |
| 1777217033 | 15.56° C | 78% | 1020 hPa | 0 mm | - | 110 W/m² | - |
| 1777216730 | 15.56° C | 77% | 1019.8 hPa | 0 mm | - | 144 W/m² | - |
| 1777216426 | 15.56° C | 77% | 1020 hPa | 0 mm | - | 77 W/m² | - |
| 1777216125 | 15° C | 80% | 1020 hPa | 0 mm | - | 104 W/m² | - |
| 1777215825 | 15° C | 80% | 1020 hPa | 0 mm | - | 88 W/m² | - |
| 1777215521 | 14.44° C | 80% | 1019.9 hPa | 0 mm | - | 268 W/m² | - |
| 1777215218 | 14.44° C | 80% | 1019.9 hPa | 0 mm | - | 62 W/m² | - |
| 1777214913 | 14.44° C | 80% | 1020.1 hPa | 0 mm | - | 85 W/m² | - |
| 1777214612 | 13.89° C | 81% | 1019.8 hPa | 0 mm | - | 87 W/m² | - |
| 1777214308 | 13.89° C | 81% | 1020 hPa | 0 mm | - | 58 W/m² | - |
| 1777214006 | 13.33° C | 83% | 1020 hPa | 0 mm | - | 66 W/m² | - |
* Rain latest hour (hover to see other rain measurements)
** Current wind speed in m/s (hover to see current wind gust speed)